EW2270 Weather Reports


time (UTC)temp
C
wind
direction
speed
KPH
gust
KPH
rain 1hr
cm
rain 24hr
cm
rain mn
cm
humidity
%
barometer
mb
20260831091508 9 148 0.0 1.6 0.00 0.00 0.00 61 1013.9
20260831090006 8 149 0.0 3.2 0.00 0.00 0.00 60 1014.2
20260831084505 8 148 3.2 6.4 0.00 0.00 0.00 59 1014.3
20260831083007 9 149 1.6 3.2 0.00 0.00 0.00 60 1014.2
20260831081601 9 148 3.2 6.4 0.00 0.00 0.00 58 1014.1
20260831074558 10 125 0.0 0.0 0.00 0.00 0.00 58 1014.2
20260831073102 11 125 1.6 3.2 0.00 0.00 0.00 58 1014.2
20260831071553 11 125 1.6 1.6 0.00 0.00 0.00 57 1014.4
20260831070050 10 125 0.0 1.6 0.00 0.00 0.00 59 1014.3
20260831064555 10 125 0.0 0.0 0.00 0.00 0.00 57 1014.3
20260831063048 11 125 1.6 3.2 0.00 0.00 0.00 55 1014.4
20260831061558 11 125 0.0 3.2 0.00 0.00 0.00 54 1014.3
20260831060059 12 125 0.0 4.8 0.00 0.00 0.00 52 1014.4
20260831054547 12 126 0.0 3.2 0.00 0.00 0.00 52 1014.4
20260831053048 12 148 0.0 1.6 0.00 0.00 0.00 51 1014.3
20260831051555 12 160 1.6 3.2 0.00 0.00 0.00 51 1014.3
20260831050045 12 263 3.2 4.8 0.00 0.00 0.00 52 1014.4
20260831044547 13 142 0.0 4.8 0.00 0.00 0.00 49 1014.3
20260831043048 12 142 0.0 3.2 0.00 0.00 0.00 51 1014.5
20260831041543 13 158 0.0 1.6 0.00 0.00 0.00 48 1014.4
20260831040042 13 158 0.0 3.2 0.00 0.00 0.00 47 1014.4
20260831034544 15 158 0.0 3.2 0.00 0.00 0.00 46 1014.3
20260831033042 15 132 1.6 4.8 0.00 0.00 0.00 43 1014.2
20260831031545 16 110 1.6 4.8 0.00 0.00 0.00 45 1014.2
20260831030047 18 115 1.6 3.2 0.00 0.00 0.00 39 1014.1
20260831024607 20 309 0.0 3.2 0.00 0.00 0.00 36 1013.9
20260831023039 21 298 1.6 4.8 0.00 0.00 0.00 34 1013.8
20260831021539 21 305 1.6 6.4 0.00 0.00 0.00 33 1013.7
20260831020039 22 312 1.6 4.8 0.00 0.00 0.00 32 1013.7
20260831014540 23 312 3.2 8.0 0.00 0.00 0.00 31 1013.6
20260831013042 23 314 6.4 9.7 0.00 0.00 0.00 31 1013.8
20260831011537 23 313 1.6 8.0 0.00 0.00 0.00 29 1013.8
20260831010035 23 302 3.2 11.3 0.00 0.00 0.00 31 1013.8
20260831004535 23 342 3.2 11.3 0.00 0.00 0.00 30 1013.9
20260831003034 23 336 3.2 11.3 0.00 0.00 0.00 30 1014.0
20260831001532 23 319 6.4 14.5 0.00 0.00 0.00 30 1014.1
20260831000030 23 298 9.7 16.1 0.00 0.00 0.00 28 1014.2
20260830234528 23 292 3.2 12.9 0.00 0.00 0.00 30 1014.3
20260830233027 23 288 8.0 16.1 0.00 0.00 0.00 29 1014.4
20260830231532 23 297 11.3 16.1 0.00 0.00 0.00 29 1014.5
20260830230024 23 250 9.7 14.5 0.00 0.00 0.00 28 1014.5
20260830224527 23 267 3.2 19.3 0.00 0.00 0.00 28 1014.6
20260830223020 23 299 9.7 14.5 0.00 0.00 0.00 29 1014.8
20260830221524 23 17 1.6 12.9 0.00 0.00 0.00 30 1014.9
20260830220014 23 83 1.6 11.3 0.00 0.00 0.00 30 1015.2
20260830214510 23 356 9.7 16.1 0.00 0.00 0.00 30 1015.4
20260830213007 22 44 4.8 17.7 0.00 0.00 0.00 31 1015.6
20260830211507 22 28 4.8 14.5 0.00 0.00 0.00 32 1015.7
20260830210004 22 333 4.8 24.1 0.00 0.00 0.00 33 1016.0
20260830204502 22 285 8.0 12.9 0.00 0.00 0.00 34 1016.2
20260830203118 22 252 0.0 19.3 0.00 0.00 0.00 34 1016.3
20260830201608 21 324 0.0 17.7 0.00 0.00 0.00 35 1016.5
20260830200055 21 270 6.4 19.3 0.00 0.00 0.00 36 1016.7
20260830194553 20 345 6.4 19.3 0.00 0.00 0.00 37 1016.7
20260830193053 21 273 6.4 12.9 0.00 0.00 0.00 37 1017.0
20260830191557 20 285 8.0 12.9 0.00 0.00 0.00 38 1017.1
20260830190048 20 224 8.0 16.1 0.00 0.00 0.00 39 1017.2
20260830184547 20 344 8.0 22.5 0.00 0.00 0.00 39 1017.4
20260830183048 18 305 6.4 12.9 0.00 0.00 0.00 41 1017.6
20260830181551 18 5 8.0 16.1 0.00 0.00 0.00 41 1017.8
20260830180041 18 206 1.6 9.7 0.00 0.00 0.00 43 1017.7
20260830174538 18 300 4.8 11.3 0.00 0.00 0.00 42 1017.8
20260830173047 17 339 1.6 9.7 0.00 0.00 0.00 43 1018.1
20260830171542 17 292 3.2 8.0 0.00 0.00 0.00 44 1018.1
20260830170033 17 267 0.0 8.0 0.00 0.00 0.00 45 1018.3
20260830164547 16 238 4.8 11.3 0.00 0.00 0.00 45 1018.4
20260830163034 16 10 1.6 11.3 0.00 0.00 0.00 48 1018.5
20260830161530 16 224 3.2 9.7 0.00 0.00 0.00 47 1018.5
20260830160029 16 203 3.2 9.7 0.00 0.00 0.00 48 1018.6
20260830154626 15 196 4.8 11.3 0.00 0.00 0.00 49 1018.7
20260830153023 15 226 1.6 4.8 0.00 0.00 0.00 51 1018.6
20260830151536 13 145 0.0 0.0 0.00 0.00 0.00 60 1018.7
20260830150020 11 145 1.6 3.2 0.00 0.00 0.00 65 1018.8
20260830144521 10 145 0.0 3.2 0.00 0.00 0.00 66 1018.8
20260830143018 9 145 0.0 1.6 0.00 0.00 0.00 68 1018.7
20260830141517 9 145 1.6 4.8 0.00 0.00 0.00 67 1018.7
20260830140015 8 145 3.2 8.0 0.00 0.00 0.00 70 1018.5
20260830134515 7 138 1.6 8.0 0.00 0.00 0.00 74 1018.3
20260830133012 7 136 1.6 9.7 0.00 0.00 0.00 74 1018.3
20260830131509 7 141 6.4 11.3 0.00 0.00 0.00 73 1018.3
20260830130007 7 131 1.6 9.7 0.00 0.00 0.00 72 1018.0
20260830124509 7 138 3.2 6.4 0.00 0.00 0.00 70 1018.1
20260830123100 8 125 1.6 8.0 0.00 0.00 0.00 68 1017.9
20260830121557 10 144 6.4 8.0 0.00 0.00 0.00 65 1017.9
20260830120057 11 167 3.2 8.0 0.00 0.00 0.00 65 1017.9
20260830114613 10 152 4.8 9.7 0.00 0.00 0.00 65 1017.9
20260830113057 10 167 8.0 11.3 0.00 0.00 0.00 66 1017.8
20260830111552 10 150 6.4 9.7 0.00 0.00 0.00 66 1017.6
20260830110050 10 144 4.8 8.0 0.00 0.00 0.00 67 1017.5
20260830104557 10 148 6.4 12.9 0.00 0.00 0.00 66 1017.3
20260830103048 10 128 6.4 12.9 0.00 0.00 0.00 64 1017.2
20260830101549 11 167 9.7 12.9 0.00 0.00 0.00 65 1017.3
20260830100046 10 155 8.0 12.9 0.00 0.00 0.00 67 1017.1
20260830094545 10 143 3.2 8.0 0.00 0.00 0.00 66 1017.1
20260830093042 11 146 8.0 11.3 0.00 0.00 0.00 64 1017.0